, AK

(GMT )
Annette Island

Weather History for PANT - January, 2012

Change the Weather History Date:

Wednesday, January 18, 2012

  Actual Average Record
Temperature  
Mean Temperature 14 °F 37 °F  
Max Temperature 19 °F 42 °F 57 °F (2009)
Min Temperature 8 °F 32 °F 4 °F (2012)
Degree Days  
Heating Degree Days 51 28  
Month to date heating degree days 589 504  
Since 1 July heating degree days 3699 3415  
Cooling Degree Days 0    
Month to date cooling degree days 0  
Year to date cooling degree days 0  
Moisture  
Dew Point -5 °F    
Average Humidity 0    
Maximum Humidity 0    
Minimum Humidity 0    
Precipitation  
Precipitation 0.00 in 0.36 in 2.80 in (1958)
Month to date precipitation 7.06 6.34  
Year to date precipitation 7.06 6.34  
Snow  
Snow 0.00 in 0.30 in 5.70 in (1964)
Month to date snowfall 5.5 4.6  
Since 1 July snowfall 16.3  
Snow Depth 0.00 in    
Sea Level Pressure  
Sea Level Pressure 30.01 in    
Wind  
Wind Speed 6 mph (NE)    
Max Wind Speed 13 mph    
Max Gust Speed 25 mph    
Visibility 10 miles    
Events      
T = Trace of Precipitation, MM = Missing Value Source: NWS Daily Summary

Daily Weather History Graph

Daily Weather History Graph

Search for Another Location

Airport or City:

Trip Planner

Search our weather history database for the weather conditions in past years. The results will help you decide how hot, cold, wet, or windy it might be!

Date:

Astronomy

Jan. 18, 2012 Rise Set
Actual Time 7:59 AM AKST 3:54 PM AKST
Civil Twilight 7:16 AM AKST 4:37 PM AKST
Nautical Twilight 6:30 AM AKST 5:22 PM AKST
Astronomical Twilight 5:47 AM AKST 6:06 PM AKST
Moon 3:42 AM AKST (1/18) 11:31 AM AKST (1/18)
Length of Visible Light 9h 20m
Length of Day
7h 55m
Waning Crescent, 23% of the Moon is Illuminated
Jan 18
Waning Crescent
Jan 22
New
Jan 30
First Quarter
Feb 7
Full
Feb 14
Last Quarter

Hourly Weather History & Observations

Time (AKST) Temp. Windchill Dew Point Humidity Pressure Visibility Wind Dir Wind Speed Gust Speed Precip Events Conditions
12:53 AM 9.0 °F -3.2 °F -9.9 °F 42% 30.18 in 10.0 mi NNE 8.1 mph - N/A   Clear
1:53 AM 9.0 °F -2.2 °F -9.0 °F 44% 30.16 in 10.0 mi Variable 6.9 mph 16.1 mph N/A   Clear
3:53 AM 9.0 °F 0.6 °F -8.0 °F 46% 30.13 in 10.0 mi NE 4.6 mph - N/A   Clear
4:53 AM 10.0 °F -0.9 °F -8.0 °F 44% 30.10 in 10.0 mi Variable 6.9 mph - N/A   Clear
5:53 AM 9.0 °F - -6.0 °F 51% 30.09 in 10.0 mi Calm Calm - N/A   Clear
6:53 AM 10.9 °F -1.8 °F -7.1 °F 44% 30.06 in 10.0 mi North 9.2 mph - N/A   Clear
7:53 AM 12.0 °F -1.3 °F -6.0 °F 44% 30.03 in 10.0 mi NNE 10.4 mph 18.4 mph N/A   Clear
8:53 AM 12.9 °F 3.8 °F -4.0 °F 47% 30.03 in 10.0 mi NNE 5.8 mph - N/A   Clear
9:53 AM 16.0 °F 7.4 °F -5.1 °F 39% 30.03 in 10.0 mi ENE 5.8 mph - N/A   Clear
10:53 AM 17.1 °F 5.8 °F -7.1 °F 34% 30.02 in 10.0 mi ENE 9.2 mph 17.3 mph N/A   Clear
11:53 AM 18.0 °F 11.1 °F -8.0 °F 31% 30.01 in 10.0 mi East 4.6 mph - N/A   Clear
12:53 PM 18.0 °F 6.9 °F -5.1 °F 36% 30.00 in 10.0 mi ENE 9.2 mph - N/A   Clear
1:53 PM 18.0 °F 9.8 °F -5.1 °F 36% 29.99 in 10.0 mi Variable 5.8 mph - N/A   Clear
2:53 PM 18.0 °F 8.7 °F -5.1 °F 36% 29.99 in 10.0 mi ENE 6.9 mph - N/A   Clear
3:53 PM 17.1 °F 8.7 °F -5.1 °F 37% 29.97 in 10.0 mi Variable 5.8 mph - N/A   Clear
4:53 PM 14.0 °F - -4.0 °F 45% 29.96 in 10.0 mi Calm Calm - N/A   Clear
5:53 PM 12.9 °F 5.2 °F -2.0 °F 51% 29.94 in 10.0 mi Variable 4.6 mph - N/A   Clear
6:53 PM 15.1 °F - -5.1 °F 41% 29.93 in 10.0 mi Calm Calm - N/A   Clear
7:53 PM 14.0 °F 8.2 °F -5.1 °F 43% 29.92 in 10.0 mi NE 3.5 mph - N/A   Clear
8:53 PM 12.9 °F 6.9 °F -5.1 °F 45% 29.92 in 10.0 mi NE 3.5 mph - N/A   Clear
9:53 PM 10.9 °F - -2.0 °F 56% 29.91 in 10.0 mi Calm Calm - N/A   Clear
10:53 PM 7.0 °F - 1.9 °F 80% 29.91 in 10.0 mi Calm Calm - N/A   Clear
11:53 PM 5.0 °F - 1.9 °F 87% 29.91 in 10.0 mi Calm Calm - N/A   Clear